Location: Loren Miller Homes
(37.7727°N, 122.4375°W)
Time: 00:15:50
(UTC+00:00)

Daily predictions for brighter satellites

Satellite Brightness Start Highest point End
(mag) Time Altitude Azimuth Time Altitude Azimuth Time Altitude Azimuth
Meteor 1-18 Rocket 4.4 03:51:54 10° S 03:57:47 89° W 04:03:37 10° N
Lacrosse 5 rocket 3.3 03:56:11 10° WNW 03:59:35 24° WSW 04:02:52 10° S
Cosmos 1470 4.4 03:58:29 10° NNE 04:01:01 17° ENE 04:03:32 10° ESE
Cosmos 2026 Rocket 4.0 03:59:34 10° S 04:05:46 83° E 04:11:53 10° N
CZ-4 R/B 2.5 04:02:04 10° S 04:05:51 45° W 04:09:43 10° NNW
KORONAS-FOTON 4.4 04:04:38 10° SSE 04:08:02 35° E 04:11:26 10° NNE
Cosmos 1328 Rocket 3.9 04:06:20 10° SSW 04:10:35 67° W 04:14:51 10° N
CZ-4B R/B 3.4 04:08:03 10° S 04:13:19 74° WSW 04:18:39 10° NNW
Cosmos 1842 3.4 04:10:16 10° SSE 04:13:45 45° E 04:17:15 10° NNE
OPS 6432 4.3 04:10:45 10° NW 04:13:51 79° WSW 04:17:19 10° SSE
IRIDIUM 106 4.5 04:16:08 10° N 04:21:17 58° E 04:26:24 10° SSE
Cosmos 2251 Rocket 4.5 04:16:29 10° SW 04:21:37 52° WNW 04:26:49 10° N
Cosmos 2360 Rocket 4.3 04:27:11 10° NNE 04:29:35 13° NE 04:31:59 10° ENE
Cosmos 540 Rocket 3.9 04:24:51 10° N 04:29:48 46° ENE 04:34:02 14° SE
USA 186 3.9 04:27:49 10° SSW 04:30:42 27° W 04:33:37 10° NW
Cosmos 1707 2.4 04:34:54 10° S 04:38:29 75° E 04:42:05 10° N
Okean-O 2.6 04:36:10 11° SSE 04:40:21 76° ENE 04:44:46 10° N
Cosmos 2082 Rocket 3.6 04:35:01 10° SW 04:40:23 42° WNW 04:45:47 10° N
SL-16 R/B 3.3 04:36:13 10° N 04:41:11 30° ENE 04:45:05 15° ESE
PSLV R/B 4.4 04:38:02 10° S 04:41:28 48° W 04:44:54 10° NNW
Cosmos 1515 Rocket 3.9 04:38:20 10° SSW 04:42:37 67° W 04:46:56 10° N
Cosmos 2333 Rocket 4.2 04:39:48 10° NNE 04:43:04 15° NE 04:46:20 10° E
Cosmos 1954 Rocket 4.2 04:38:01 10° SSW 04:43:18 77° WNW 04:48:36 10° NNE
Cosmos 2369 3.9 04:39:34 10° NNW 04:45:19 76° WSW 04:50:32 12° SSE
SeaSat 1 3.5 04:42:03 14° ESE 04:45:31 32° ENE 04:49:51 10° N
CZ-4C R/B 3.4 04:43:31 10° NNE 04:47:41 86° ESE 04:51:46 10° SSW
USA 245 4.3 04:47:48 19° ESE 04:49:25 28° ENE 04:52:54 10° N
Atlas Centaur 2 3.3 04:42:01 10° WSW 04:49:43 51° S 04:56:31 15° ESE
Tiangong -2.2 04:50:06 10° WNW 04:53:17 88° SSW 04:54:54 26° ESE
Cosmos 676 Rocket 4.2 04:49:06 10° SSW 04:54:24 76° WNW 04:59:44 10° NNE
SPOT 5 2.5 04:53:26 18° SSE 04:56:34 76° ENE 05:00:56 10° N
Cosmos 2228 Rocket 4.2 04:56:00 21° SE 04:57:45 27° E 05:01:36 10° NNE
ASTRO E2 4.0 04:56:48 10° SSW 04:58:38 18° S 04:58:38 18° S
Okean O Rocket 3.2 04:56:34 10° SSW 05:00:28 31° W 05:04:24 10° NW
IRS-1A Rocket 4.3 04:57:30 19° SSE 05:01:32 68° ENE 05:07:00 10° N
MetOp-B 4.1 04:57:49 16° SSE 05:02:06 85° ENE 05:07:29 10° NNW
Cosmos 1356 Rocket 4.5 05:01:42 24° ESE 05:02:54 28° E 05:06:29 10° NNE
Cosmos 1869 Rocket 3.7 05:00:39 10° N 05:05:02 56° E 05:07:23 26° SSE
Cosmos 1400 Rocket 2.7 05:03:49 22° S 05:06:09 59° E 05:09:57 10° NNE
Cosmos 1553 Rocket 4.2 05:05:44 10° NNW 05:11:53 69° W 05:17:42 12° S
ERS-1 Rocket 3.0 05:10:39 24° SSE 05:13:39 70° ENE 05:18:39 10° N
ATLAS CENTAUR R/B 0.7 05:11:14 14° SSW 05:14:09 68° ESE 05:17:39 10° NE
S3M 4.1 05:09:08 10° N 05:15:28 66° E 05:19:23 24° SSE
Cosmos 1300 3.7 05:13:52 10° NNE 05:16:55 26° ENE 05:17:15 26° E
Cosmos 1441 Rocket 3.2 05:14:32 10° NNW 05:18:08 70° W 05:19:50 29° S
Cosmos 841 Rocket 3.7 05:14:23 10° N 05:19:35 56° ENE 05:22:02 30° SE
Meteor 1-22 Rocket 4.3 05:15:07 10° N 05:20:49 70° E 05:24:08 27° SSE
Cosmos 2266 Rocket 4.0 05:15:24 11° S 05:21:28 90° W 05:27:53 10° N
Cosmos 1980 Rocket 3.9 05:17:40 10° NW 05:22:16 26° WSW 05:26:51 10° SSW
Cosmos 1655 Rocket 4.1 05:19:20 21° SSE 05:23:44 64° E 05:30:03 10° NNE
Cosmos 2322 Rocket 2.9 05:18:48 10° N 05:24:11 42° ENE 05:26:46 27° ESE
Spot 2 Rocket 3.5 05:22:35 30° SSE 05:25:02 66° ENE 05:30:04 10° N
Timation 1 Rocket 4.4 05:19:45 10° SSW 05:25:42 79° WNW 05:31:41 10° NNE
Cosmos 1908 3.8 05:22:22 10° NNW 05:25:51 48° W 05:27:39 25° SSW
Aureole 3 4.3 05:27:56 30° E 05:28:07 30° E 05:31:56 10° NNE
Resurs 01 Rocket 4.4 05:28:37 10° WSW 05:30:02 11° W 05:31:25 10° WNW
Cosmos 1862 Rocket 3.8 05:32:16 40° SE 05:33:13 48° E 05:37:28 10° NNE
Meteor 2-10 Rocket 3.6 05:29:53 10° N 05:35:25 69° E 05:37:36 36° SSE
Terra 1.8 05:33:36 33° S 05:35:43 82° WSW 05:40:27 10° NNW
Cosmos 2278 3.8 05:30:26 10° NNW 05:36:08 73° WSW 05:38:57 31° S
USA 234 4.1 05:31:35 10° NE 05:37:53 52° NW 05:44:09 10° WSW
Meteor 1-21 4.3 05:36:20 30° SSE 05:39:10 65° E 05:44:55 10° NNE
SL-27 R/B 2.5 05:40:47 51° N 05:40:47 51° N 05:42:58 10° NNE
Landsat 5 3.5 05:37:39 10° NNE 05:41:39 55° E 05:42:09 51° SE
Cosmos 883 Rocket 4.5 05:38:24 10° N 05:44:46 83° E 05:47:53 33° S
Okean 3 3.6 05:44:40 49° ESE 05:44:57 51° E 05:49:00 10° NNE
SL-14 R/B 3.4 05:47:52 42° SSW 05:48:58 65° W 05:52:44 10° N
Cosmos 2219 Rocket 3.5 05:44:46 10° N 05:49:34 27° ENE 05:51:37 22° E
Ariane Rocket 3.0 05:47:41 37° S 05:49:45 76° WSW 05:54:51 10° NNW
Meteor 1-4 Rocket 3.8 05:53:21 24° NE 05:53:21 24° NE 05:54:50 10° NNE
Landsat 4 3.5 05:51:47 64° SW 05:51:59 66° WSW 05:55:25 10° NNW
Cosmos 1707 Rocket 3.6 05:52:13 40° SSW 05:53:44 78° W 05:58:12 10° N
BREEZE-M DEB (TANK) 4.3 05:51:54 10° NNW 05:53:45 21° NE 05:54:33 19° ENE
SJ 16-02 1.2 05:53:26 61° SSE 05:53:58 69° ESE 05:58:16 10° NNE
Cosmos 1346 Rocket 2.5 05:57:18 10° N 06:01:10 87° E 06:01:14 85° SE
RESURS DK-1 2.4 06:02:31 10° NNW 06:06:34 66° WSW 06:06:46 64° SW
COSMOS 2455 4.2 06:07:48 22° E 06:07:48 22° E 06:11:14 10° NE
ARIANE 5 R/B 4.1 06:08:40 24° ENE 06:08:45 24° ENE 06:12:13 10° NNE
CZ-4C R/B 4.1 06:13:08 11° ENE 06:13:08 11° ENE 06:13:26 10° ENE
Cosmos 2315 Rocket 4.2 06:05:16 10° NNW 06:11:35 67° W 06:14:25 34° SSW
Cosmos 2360 Rocket 2.1 06:08:44 10° NNW 06:14:26 85° ENE 06:15:45 55° SSE
SPOT 3 Rocket 4.2 06:12:49 34° SSW 06:14:32 48° W 06:19:32 10° NNW
Cosmos 1455 3.6 06:15:42 10° NNE 06:17:48 26° NE 06:17:48 26° NE
Cosmos 1733 Rocket 3.4 06:14:57 10° NNW 06:19:17 58° W 06:19:50 53° SW
Cosmos 1758 4.3 06:16:44 10° NNW 06:20:21 37° W 06:20:44 36° WSW
Cosmos 968 Rocket 4.3 06:17:02 20° SW 06:20:22 47° WNW 06:25:22 10° N
SeaSat 1 3.6 06:21:45 28° SW 06:22:53 31° WSW 06:27:13 10° NW
ATLAS 2AS CENTAUR R/B 2.6 06:16:06 10° NNW 06:22:53 76° ENE 06:24:53 48° SE
Okean 1-7 2.9 06:24:31 87° N 06:24:31 87° N 06:28:48 10° N
SL-16 R/B 3.3 06:20:09 10° NW 06:25:15 35° WSW 06:26:57 29° SW
Cosmos 2333 Rocket 2.2 06:22:16 10° NNW 06:28:02 82° WSW 06:29:07 60° S
GP-B 3.7 06:27:03 10° NNE 06:30:43 45° ENE 06:30:43 45° ENE
Cosmos 1908 Rocket 3.9 06:28:56 10° N 06:32:43 53° NE 06:32:43 53° NE
USA 281 3.6 06:32:33 39° ESE 06:34:35 52° ENE 06:40:55 10° NNW
Cosmos 1814 Rocket 3.9 06:29:51 10° NNW 06:35:11 88° WSW 06:35:43 73° S
Atlas Centaur 2 3.5 06:31:07 10° W 06:38:39 38° SSW 06:38:43 38° SSW
Okean 2 4.2 06:47:31 45° WNW 06:47:31 45° WNW 06:51:05 10° N
Cosmos 2237 Rocket 4.3 06:45:25 10° NNE 06:48:46 16° NE 06:51:07 13° E
Cosmos 2227 Rocket 4.3 06:52:28 13° E 06:52:28 13° E 06:53:41 10° ENE
Cosmos 2322 4.1 06:46:13 10° NNW 06:51:44 49° ENE 06:52:24 47° E
Cosmos 1745 Rocket 3.9 06:53:20 64° SSE 06:54:13 74° E 07:00:34 10° N
Cosmos 2333 4.4 06:51:56 10° NNW 06:57:36 60° WSW 06:58:05 58° SW
ALOS 2 4.1 07:00:33 27° ENE 07:00:33 27° ENE 07:03:48 10° NNE
Cosmos 1315 Rocket 4.4 07:00:13 29° WNW 07:00:13 29° WNW 07:03:42 10° NNW
Cosmos 1953 3.7 07:02:16 10° NNW 07:04:51 34° NW 07:04:51 34° NW
Cosmos 2322 Rocket 3.7 07:03:24 10° NW 07:07:55 25° WSW 07:08:34 24° WSW
Cosmos 839 Rocket 3.9 07:01:37 10° NNW 07:08:09 72° WSW 07:08:45 67° SSW
Nadezhda 1 Rocket 3.8 07:02:06 10° N 07:08:24 84° E 07:09:03 73° SSE
Cosmos 2297 Rocket 2.9 07:11:26 40° E 07:11:26 40° E 07:15:49 10° NE
CENTAUR R/B 4.0 07:20:44 20° E 07:20:44 20° E 07:23:41 10° ENE
BlueWalker 3 3.9 07:23:59 27° NNW 07:24:01 27° NNW 07:27:16 10° NNE
Meteor 2-5 Rocket 4.0 07:24:15 59° E 07:24:15 59° E 07:29:54 10° NNE
Cosmos 2242 Rocket 4.2 07:25:41 56° N 07:25:41 56° N 07:29:18 10° N
Cosmos 1486 Rocket 4.0 07:26:40 75° NNW 07:26:40 75° NNW 07:31:31 10° NNE
Cosmos 371 Rocket 3.7 07:29:04 59° NNE 07:29:04 59° NNE 07:32:58 10° NNE
SJ 16-02 4.3 07:32:41 10° WNW 07:32:48 10° WNW 07:32:54 10° WNW
COSMOS 2428 2.6 07:27:32 10° NNW 07:33:09 86° N 07:33:09 86° N
Cosmos 2219 Rocket 3.0 07:28:20 10° NW 07:33:19 40° W 07:33:19 40° W
H-2A R/B 3.5 07:34:51 45° NW 07:34:51 45° NW 07:37:56 10° NNW
Cosmos 1354 Rocket 4.5 07:42:02 54° ENE 07:42:02 54° ENE 07:46:24 10° NNE
Cosmos 2263 Rocket 4.3 07:45:28 14° E 07:45:28 14° E 07:47:13 10° ENE
ARIANE 5 R/B 4.4 07:46:08 23° WNW 07:46:08 23° WNW 07:48:40 10° NW
COSMOS 2455 3.4 07:50:52 44° W 07:52:09 52° WNW 07:58:03 10° NNE
NOSS 0 Rocket 3.8 07:47:28 10° NNW 07:53:45 86° ENE 07:54:00 82° ESE
Cosmos 1709 Rocket 4.3 07:52:59 51° WSW 07:53:49 55° W 08:00:05 10° N
CZ-4C R/B 2.6 07:58:11 43° NW 07:58:11 43° NW 08:03:12 10° NNE
Cosmos 2184 Rocket 4.1 08:07:26 61° ESE 08:07:42 61° E 08:13:57 10° NNE
SL-12 R/B(2) 4.1 08:08:53 59° SSE 08:10:04 65° ESE 08:19:03 10° NE
Cosmos 2098 Rocket 3.9 08:04:15 10° N 08:10:53 79° W 08:11:08 77° WSW
ATLAS 2AS CENTAUR R/B 4.4 08:08:49 10° WNW 08:12:17 17° W 08:12:17 17° W
USA 281 4.4 08:19:25 27° W 08:19:25 27° W 08:24:42 10° NW
SL-4 R/B 3.5 08:16:21 10° NW 08:19:47 36° NNE 08:19:47 36° NNE
Cosmos 332 Rocket 4.3 08:22:36 59° N 08:22:36 59° N 08:26:38 10° NNE
Cosmos 2154 Rocket 4.0 08:24:17 67° ESE 08:24:32 68° E 08:30:46 10° NNE
SL-16 R/B 3.8 08:21:16 10° N 08:26:08 28° ENE 08:28:24 22° E
Cosmos 990 Rocket 4.3 08:28:19 58° NE 08:28:19 58° NE 08:32:35 10° NNE
Cosmos 1825 4.4 08:30:09 21° N 08:30:09 21° N 08:31:26 10° N
H-2A R/B 3.2 08:25:04 10° N 08:28:00 40° NNW 08:28:00 40° NNW
Cosmos 2237 Rocket 2.2 08:27:47 10° NNW 08:32:55 69° WNW 08:32:55 69° WNW
Cosmos 2227 Rocket 2.2 08:34:15 70° WNW 08:34:15 70° WNW 08:39:53 10° NNE
Cosmos 1455 Rocket 4.4 08:39:08 10° NNE 08:42:43 33° ENE 08:42:43 33° ENE
Okean 2 Rocket 4.2 08:39:27 10° NNW 08:42:29 38° NW 08:42:29 38° NW
Cosmos 1980 4.2 08:40:59 10° NNW 08:45:41 49° WNW 08:45:41 49° WNW
GEOS 3 Rocket 4.0 08:41:58 10° NNE 08:46:57 52° NW 08:47:19 51° WNW
CZ-2D R/B 4.4 08:45:51 10° ENE 08:47:59 12° E 08:48:55 12° ESE
Meteor 1-21 Rocket 4.2 08:50:20 75° ESE 08:50:24 75° E 08:56:07 10° NNE
Cosmos 1025 Rocket 3.9 08:54:33 48° N 08:54:33 48° N 08:57:44 10° N
Cosmos 2297 Rocket 3.8 08:53:11 22° W 08:54:41 25° WNW 08:59:17 10° N
Cosmos 2219 3.1 08:57:02 84° WNW 08:57:02 84° WNW 09:02:39 10° NNE
Cosmos 1610 Rocket 4.4 08:59:32 73° SW 09:00:09 81° W 09:06:34 10° N
Cosmos 372 Rocket 4.4 09:02:01 52° E 09:02:01 52° E 09:06:47 10° NNE
Aureole 1 Rocket 4.2 09:05:11 34° NNE 09:05:11 34° NNE 09:07:37 10° NNE
Helios 1A Rocket 4.1 09:08:46 36° NE 09:08:46 36° NE 09:11:32 10° N
CENTAUR R/B 2.8 09:07:50 44° W 09:08:58 50° NW 09:15:29 10° NNE
Cosmos 1461 4.3 09:11:56 32° NE 09:11:56 32° NE 09:14:16 10° NE
ADEOS II 4.3 09:10:50 10° ENE 09:13:35 14° E 09:15:11 13° ESE
Cosmos 2341 Rocket 4.1 09:12:42 55° SE 09:13:43 63° E 09:19:50 10° NNE
CRYOSAT 2 4.4 09:09:39 10° N 09:14:17 74° ENE 09:14:17 74° ENE
Cosmos 1937 Rocket 3.6 09:18:40 66° ESE 09:18:40 66° ESE 09:23:53 10° NNE
Cosmos 1898 Rocket 3.4 09:22:24 82° WNW 09:22:24 82° WNW 09:27:33 10° NNE
Cosmos 1339 Rocket 4.4 09:17:03 10° N 09:23:29 90° E 09:24:38 63° S
Resurs 1-4 Rocket 3.2 09:22:44 10° NE 09:27:26 32° E 09:28:26 30° ESE
Cosmos 2263 Rocket 2.2 09:27:08 64° W 09:27:34 67° WNW 09:33:08 10° NNE
Cosmos 1869 4.0 09:38:10 10° N 09:41:04 47° NNE 09:41:04 47° NNE
Cosmos 1821 Rocket 4.5 09:44:40 35° SE 09:46:49 51° E 09:52:43 10° NNE
Cosmos 1844 Rocket 3.8 09:45:59 28° SE 09:47:23 32° ESE 09:52:18 10° NE
Cosmos 1437 Rocket 4.2 09:47:29 29° E 09:47:32 29° E 09:50:51 10° NNE
Cosmos 2218 Rocket 3.9 09:48:21 56° SSW 09:49:49 85° W 09:56:03 10° N
Cosmos 1544 Rocket 3.5 09:50:28 10° N 09:54:54 79° E 09:55:05 77° ESE
NOSS 3-2 (A) 4.3 09:53:39 27° W 09:55:22 34° NW 10:00:44 10° NNE
Cosmos 2366 rocket 4.0 09:55:02 53° SSW 09:56:32 72° W 10:02:48 10° N
Cosmos 2228 3.3 09:53:44 10° N 09:58:00 60° E 09:58:31 55° ESE
Cosmos 1680 Rocket 3.7 09:53:14 10° NNW 09:58:25 68° ENE 10:00:26 37° SE
Cosmos 2112 Rocket 4.4 09:55:36 10° N 10:00:43 59° ENE 10:03:19 28° SE
Cosmos 1818 3.9 09:55:34 10° NNW 10:01:01 65° ENE 10:05:15 17° SE
NOSS 3-2 (C) 3.1 10:00:08 54° WSW 10:01:09 68° NW 10:07:02 10° NNE
MSX 3.7 10:01:09 10° NNE 10:06:54 88° ESE 10:08:36 49° SSW
USA 267 3.6 10:02:49 10° NE 10:09:08 50° SE 10:11:21 36° S
BREEZE-M DEB (TANK) 4.1 10:06:48 10° NW 10:08:03 18° NW 10:08:03 18° NW
SL-16 R/B 2.7 10:05:04 10° NW 10:10:12 39° WSW 10:10:12 39° WSW
H-2A R/B 3.3 10:07:54 10° N 10:11:52 73° WNW 10:11:52 73° WNW
IDEFIX/ARIANE 42P 2.7 10:12:33 10° N 10:17:43 61° WNW 10:18:57 47° SW
CZ-2C R/B 2.5 10:18:45 37° SSE 10:20:56 89° E 10:26:19 10° NNW
SL-16 R/B 3.6 10:15:10 10° SE 10:21:02 44° ENE 10:26:53 10° N
CZ-2C R/B 3.0 10:18:48 10° NNE 10:24:11 88° ESE 10:25:53 44° S
Cosmos 1943 3.2 10:19:26 10° NNW 10:25:05 81° ENE 10:29:23 18° SSE
CZ-2D R/B 2.1 10:23:10 10° N 10:28:30 71° WNW 10:30:12 43° SW
Cosmos 1606 4.2 10:25:49 10° NNW 10:27:48 23° WNW 10:27:48 23° WNW
Cosmos 1606 Rocket 4.4 10:26:08 10° N 10:30:25 47° E 10:33:15 19° SSE
Cosmos 921 Rocket 4.2 10:26:37 10° N 10:30:35 38° ENE 10:34:28 10° SE
FENGYUN 3A 3.6 10:26:40 10° NNE 10:32:04 80° ESE 10:34:26 35° S
Cosmos 1536 Rocket 3.9 10:32:33 45° WSW 10:33:10 49° W 10:37:28 10° N
ASTEX 1 3.9 10:31:48 20° SSE 10:34:59 57° E 10:39:46 10° N
Iridium 2 4.4 10:40:08 27° E 10:40:09 27° E 10:42:19 10° NNE
Cosmos 1125 Rocket 4.3 10:38:11 23° SSE 10:41:09 46° ESE 10:46:12 10° NNE
Cosmos 1867 3.7 10:41:52 35° SW 10:44:03 64° WNW 10:49:31 10° NNE
Cosmos 1726 Rocket 4.3 10:41:33 10° N 10:45:53 52° E 10:49:33 14° SSE
Cosmos 2239 Rocket 4.4 10:45:34 30° SSW 10:48:46 73° W 10:54:56 10° N
Dummy Sat-02 4.4 10:46:30 10° N 10:50:10 82° W 10:51:13 44° S
Cosmos 494 Rocket 4.1 10:45:34 10° NNW 10:50:49 76° ENE 10:56:04 10° SSE
Cosmos 2058 4.1 10:48:10 17° SSE 10:50:52 37° E 10:54:38 10° NNE
Cosmos 1727 Rocket 4.1 10:45:01 10° NNW 10:51:15 62° W 10:55:03 25° SSW
ADEOS II 2.2 10:48:24 10° N 10:53:35 62° WNW 10:56:03 30° SW
SAR-Lupe-4 4.0 10:51:46 10° NNE 10:55:16 56° E 10:56:48 29° SSE
IRAS Rocket 4.4 10:53:44 10° NNE 10:59:12 68° ESE 11:03:12 19° S
Cosmos 1844 3.8 10:57:17 29° SW 11:00:17 68° WNW 11:06:05 10° NNE
Dummy Sat-01 4.5 11:00:24 10° N 11:04:07 83° W 11:05:58 28° S
Cosmos 1000 Rocket 4.5 10:58:59 10° NNW 11:05:13 69° W 11:10:17 16° S
Resurs 1-4 Rocket 3.2 11:02:36 10° N 11:07:06 29° WNW 11:09:29 20° WSW
USA 238 DEB 4.1 11:03:40 22° WSW 11:07:25 47° NW 11:13:48 10° NNE
USA 238 4.1 11:03:42 22° WSW 11:07:28 47° NW 11:13:51 10° NNE
Iridium 4 Rocket 4.1 11:03:34 10° N 11:07:57 50° E 11:12:43 10° SSE
ATLAS 5 CENTAUR R/B 2.9 11:06:36 14° SSE 11:08:23 20° ESE 11:10:55 10° ENE
UNK 4.1 11:04:54 10° SSE 11:09:28 67° ENE 11:14:02 10° N
Meteor 1-28 Rocket 3.1 11:10:01 31° SSW 11:11:24 54° W 11:14:53 10° NNW
Timation 2 Rocket 4.1 11:08:50 20° SSW 11:13:45 83° ESE 11:20:13 10° NNE
Cosmos 1544 3.5 11:13:19 20° SSE 11:14:45 38° E 11:17:12 10° NNE
AQUA 4.3 11:10:31 10° N 11:14:59 44° WNW 11:17:29 23° SW
Delta 2 Rocket 3.4 11:18:28 21° W 11:20:54 52° S 11:25:08 10° ESE
Cosmos 1892 Rocket 3.8 11:19:49 23° SSW 11:22:16 51° W 11:26:36 10° N
Cosmos 2058 Rocket 3.3 11:19:57 10° N 11:24:22 73° E 11:28:44 10° SSE
ALOS 2.7 11:22:39 10° N 11:27:03 45° WNW 11:30:00 19° SW
NOAA 11 4.4 11:22:16 10° NNE 11:27:44 71° ESE 11:33:09 10° S
Cosmos 1535 Rocket 4.5 11:24:39 12° S 11:30:30 79° W 11:36:41 10° N
Cosmos 1844 Rocket 3.7 11:27:38 17° WSW 11:31:11 32° WNW 11:36:08 10° N
METEOR-M 4.1 11:29:06 10° NNE 11:34:28 89° ESE 11:39:48 10° SSW
Cosmos 2298 Rocket 4.1 11:29:42 12° SSW 11:34:32 79° ESE 11:39:53 10° NNE
Cosmos 1607 3.9 11:37:50 10° NW 11:44:12 73° WSW 11:50:23 10° SSE
Orbus 7S? 4.3 11:41:41 10° WNW 11:45:11 41° SW 11:52:11 10° SSE
Cosmos 1605 Rocket 4.0 11:42:12 10° SSW 11:48:23 68° W 11:54:30 10° N
Cosmos 1626 Rocket 3.6 11:44:34 10° S 11:49:00 86° W 11:53:27 10° N
CZ-4 R/B 3.9 11:44:09 10° N 11:49:04 71° WNW 11:54:01 10° SSW
NOSS 2-2 (C) 2.7 11:46:58 15° SW 11:49:44 80° NW 11:52:51 10° NNE
USA 267 3.9 11:45:52 10° NE 11:52:02 46° NW 11:58:12 10° WSW
Cosmos 2278 Rocket 3.9 11:48:52 10° SSE 11:53:44 30° ESE 11:58:36 10° NE
H-2A R/B 3.6 11:49:21 10° NNE 11:54:10 35° E 11:58:50 10° SSE
SWAS 4.4 11:50:31 11° SSW 11:54:27 79° WNW 11:58:40 10° NNE
Cosmos 1862 4.5 11:51:04 10° SSE 11:54:38 40° E 11:58:13 10° NNE
